Flag for Germany Weather past 2 weeks in Ludwigsfelde, Brandenburg, Germany

Now
58 °F

Passing clouds.


Feels Like: 58 °F
Forecast: 51 / 69 °F
Wind: 1 mph from East

Location: Potsdam

Current Time: May 24, 2015 at 11:35:43 PM

Latest Report: May 24, 2015 at 11:00 PM


Visibility: 25 mi

Pressure: 30.02 "Hg

Humidity: 53%

Dew point: 40 °F

Location of LudwigsfeldeLocation

Historic Weather in Ludwigsfelde — Graph

°F

Ludwigsfelde temperature yesterday

Maximum temperature yesterday: 68 °F (at 2:00 PM)
Minimum temperature yesterday: 55 °F (at 11:00 PM)
Average temperature yesterday: 61 °F

Past Weeks' High & Low Weather Summary

 TemperatureHumidityPressure
High81 °F (May 12, 4:00 PM)100% (May 15, 5:00 AM)30.39 "Hg (May 15, 5:00 AM)
Low40 °F (May 15, 6:00 AM)21% (May 11, 4:00 PM)29.59 "Hg (May 19, 4:00 AM)
Average55 °F65%30.05 "Hg
* Reported May 9 10:00 PM — May 24 10:00 PM, Ludwigsfelde, Weather by CustomWeather, © 2015

Note: Actual official high and low records may vary slightly from our data, if they occured in-between our weather recording intervals... More about our weather records

Advertising

Ludwigsfelde weather history for previous 24 hours

 ConditionsComfort  
Time TempWeatherWind HumidityBarometerVisibility
10:00 PM
Sun, May 24
60 °FPassing clouds.2 mph51%30.02 "Hg28 mi
9:00 PM61 °FPassing clouds.2 mph49%30.01 "Hg28 mi
8:00 PM65 °FPassing clouds.2 mph40%30.02 "Hg28 mi
7:00 PM69 °FPassing clouds.3 mph33%30.03 "Hg25 mi
6:00 PM69 °FPassing clouds.1 mph28%30.04 "Hg25 mi
5:00 PM69 °FPassing clouds.3 mph28%30.06 "Hg25 mi
4:00 PM71 °FPassing clouds.2 mph28%30.07 "Hg25 mi
3:00 PM67 °FPassing clouds.2 mph32%30.09 "Hg25 mi
2:00 PM65 °FPassing clouds.2 mph36%30.11 "Hg25 mi
1:00 PM64 °FPassing clouds.2 mph42%30.12 "Hg25 mi
12:00 PM62 °FPassing clouds.2 mph45%30.14 "Hg25 mi
11:00 AM58 °FScattered clouds.2 mph57%30.15 "Hg25 mi
10:00 AM57 °FScattered clouds.1 mph65%30.15 "Hg19 mi
9:00 AM55 °FScattered clouds.2 mph75%30.15 "Hg19 mi
8:00 AM49 °FPassing clouds.1 mph89%30.15 "Hg14 mi
7:00 AM45 °FPassing clouds.1 mph96%30.15 "Hg14 mi
6:00 AM43 °FScattered clouds.2 mph99%30.15 "Hg16 mi
5:00 AM43 °FScattered clouds.2 mph97%30.14 "Hg19 mi
4:00 AM44 °FPassing clouds.3 mph96%30.14 "Hg25 mi
3:00 AM45 °FClear.3 mph94%30.14 "Hg28 mi
2:00 AM47 °FPassing clouds.3 mph93%30.14 "Hg31 mi
1:00 AM49 °FPassing clouds.3 mph89%30.14 "Hg31 mi
12:00 AM51 °FPassing clouds.3 mph83%30.13 "Hg31 mi
11:00 PM
Sat, May 23
55 °FPassing clouds.6 mph77%30.12 "Hg31 mi
Weather by CustomWeather, © 2015

See weather overviewHow to use our weather pages